Hourly Data Report for September 26, 2016

All times are specified in Local Standard Time (LST). Add 1 hour to adjust for Daylight Saving Time where and when it is observed.

CHARLOTTETOWN A
PRINCE EDWARD ISLAND

46°17'21.000" N
63°07'09.000" W
48.50 m
8300301
71706
YYG

Download Data

Hourly Data (September 2016)
Hourly Data Report for September 26, 2016
Temp Definition
°C
Dew Point Temp Definition
°C
Rel Hum Definition
%
Wind Dir Definition
10's deg

Wind Spd Definition
km/h
Visibility Definition
km
Stn Press Definition
kPa
Hmdx Definition


Wind Chill Definition


Weather Definition


TIME
00:00 Legend Double Dagger 8.4 5.4 81 30 7 24.1 100.62     Rain Showers
01:00 Legend Double Dagger 8.6 5.9 83 33 14 24.1 100.66     Rain Showers
02:00 Legend Double Dagger 7.8 5.1 83 34 13 24.1 100.66     Rain Showers
03:00 Legend Double Dagger 7.9 4.3 78 34 12 24.1 100.68     LegendNANA
04:00 Legend Double Dagger 7.7 3.6 75 34 14 24.1 100.72     LegendNANA
05:00 Legend Double Dagger 7.7 4.3 79 34 19 24.1 100.77     Rain Showers
06:00 Legend Double Dagger 7.7 2.2 68 35 16 24.1 100.83     LegendNANA
07:00 Legend Double Dagger 7.3 4.5 82 35 16 24.1 100.92     Rain Showers
08:00 Legend Double Dagger 9.0 3.7 69 34 17 24.1 100.97     Mostly Cloudy
09:00 Legend Double Dagger 9.3 2.2 61 34 14 24.1 101.02     LegendNANA
10:00 Legend Double Dagger 10.3 2.9 60 36 22 24.1 101.02     LegendNANA
11:00 Legend Double Dagger 10.6 2.5 57 34 28 24.1 101.04     Mostly Cloudy
12:00 Legend Double Dagger 10.7 4.2 64 35 17 24.1 101.07     LegendNANA
13:00 Legend Double Dagger 11.4 4.0 60 33 16 24.1 101.01     LegendNANA
14:00 Legend Double Dagger 11.0 4.9 66 29 12 24.1 100.96     Mostly Cloudy
15:00 Legend Double Dagger 10.9 4.8 66 32 16 24.1 100.90     LegendNANA
16:00 Legend Double Dagger 11.5 5.6 67 28 8 24.1 100.87     LegendNANA
17:00 Legend Double Dagger 11.9 4.4 60 27 14 24.1 100.84     Mostly Cloudy
18:00 Legend Double Dagger 10.3 4.7 68 29 7 24.1 100.86     LegendNANA
19:00 Legend Double Dagger 9.2 4.8 74 25 6 24.1 100.89     LegendNANA
20:00 Legend Double Dagger 8.9 5.3 78 23 9 24.1 100.87     Mainly Clear
21:00 Legend Double Dagger 8.9 5.3 78 21 9 24.1 100.82     LegendNANA
22:00 Legend Double Dagger 8.7 6.2 84 25 11 24.1 100.77     LegendNANA
23:00 Legend Double Dagger 8.3 5.9 85 26 12 24.1 100.72     Mainly Clear

Notes on Data Quality.

Legend

  • E = Estimated
  • M = Missing
  • NA = Not Available
  • ‡ = Partner data that is not subject to review by the National Climate Archives
Date modified: